Temp
-17 -17 -17 -17 -17 -18 -18 -18 -18 -19 -19 -19 -19 -19 -19 -19 -20 -20 -19 -19 -20 -20 -19 -19 -19 -19 -19 -19 -20 -20 -20 -21 -22 -22 -23 -24 -24 -25 -26 -27 -27 -27 -28 -28
-18 -18 -18 -18 -18 -18 -18 -18 -19 -19 -19 -19 -19 -19 -19 -20 -19 -19 -19 -19 -20 -19 -19 -20 -19 -19 -19 -19 -20 -20 -21 -22 -22 -22 -23 -24 -25 -26 -27 -27 -27 -28 -28 -29
-19 -19 -19 -19 -19 -18 -18 -19 -19 -19 -19 -19 -19 -19 -19 -19 -19 -19 -19 -19 -19 -19 -19 -20 -18 -19 -19 -19 -20 -20 -21 -22 -21 -22 -23 -24 -24 -26 -27 -28 -28 -29 -29 -29
-21 -20 -20 -19 -19 -19 -19 -19 -19 -19 -19 -19 -20 -19 -19 -19 -19 -19 -19 -19 -19 -19 -19 -19 -19 -19 -19 -19 -20 -20 -21 -21 -21 -22 -22 -23 -25 -27 -28 -28 -29 -30 -30 -30
-22 -21 -20 -20 -19 -19 -19 -19 -19 -19 -19 -19 -19 -19 -19 -19 -19 -19 -19 -19 -19 -19 -19 -19 -19 -19 -19 -19 -20 -20 -21 -21 -21 -22 -22 -23 -25 -27 -28 -28 -29 -30 -30 -31
-21 -21 -20 -20 -19 -19 -19 -19 -19 -19 -19 -19 -19 -19 -19 -19 -19 -19 -18 -18 -18 -19 -19 -19 -20 -19 -19 -19 -20 -19 -20 -20 -20 -21 -22 -23 -25 -26 -27 -28 -28 -30 -30 -30
-21 -20 -20 -19 -19 -19 -19 -19 -19 -19 -19 -19 -19 -19 -18 -18 -18 -18 -18 -18 -18 -19 -19 -19 -19 -19 -19 -19 -19 -19 -20 -21 -21 -21 -22 -23 -25 -27 -27 -27 -28 -29 -30 -30
-20 -20 -19 -19 -19 -19 -19 -19 -19 -19 -19 -19 -19 -18 -18 -18 -18 -18 -18 -18 -18 -18 -19 -19 -19 -19 -19 -19 -19 -19 -20 -20 -21 -21 -21 -22 -24 -26 -26 -27 -28 -28 -29 -29
-19 -19 -19 -19 -19 -19 -19 -19 -19 -19 -19 -19 -18 -18 -18 -18 -18 -18 -18 -18 -18 -18 -18 -19 -19 -19 -19 -19 -19 -19 -19 -20 -21 -21 -21 -21 -23 -25 -25 -26 -27 -28 -28 -29
-18 -18 -18 -18 -18 -18 -18 -18 -19 -19 -18 -18 -18 -18 -18 -18 -18 -18 -18 -18 -18 -18 -18 -19 -19 -19 -19 -19 -19 -19 -19 -20 -20 -21 -21 -21 -22 -23 -24 -25 -26 -26 -27 -28
-18 -18 -18 -18 -18 -18 -18 -18 -19 -19 -18 -18 -18 -18 -18 -18 -18 -18 -18 -18 -18 -18 -18 -18 -18 -19 -19 -19 -19 -19 -19 -20 -20 -21 -20 -20 -21 -21 -21 -23 -24 -25 -26 -26
-18 -18 -18 -18 -18 -19 -19 -18 -18 -18 -18 -18 -18 -18 -18 -18 -18 -18 -18 -18 -18 -18 -18 -18 -18 -19 -19 -19 -19 -19 -19 -19 -20 -20 -20 -20 -20 -20 -20 -21 -21 -22 -24 -24
-18 -18 -18 -18 -18 -18 -18 -18 -18 -18 -18 -18 -18 -18 -18 -18 -18 -18 -18 -18 -18 -18 -18 -18 -18 -19 -19 -19 -19 -19 -19 -19 -19 -20 -20 -20 -20 -20 -20 -20 -20 -20 -21 -21
-18 -18 -18 -18 -18 -18 -18 -18 -18 -18 -18 -18 -18 -18 -18 -18 -18 -18 -18 -19 -18 -18 -18 -18 -18 -18 -19 -19 -19 -19 -19 -19 -19 -19 -20 -20 -20 -20 -20 -20 -20 -20 -20 -20
-18 -18 -18 -18 -18 -19 -18 -18 -19 -19 -19 -19 -19 -19 -19 -19 -19 -19 -19 -18 -18 -18 -18 -19 -18 -19 -19 -19 -19 -19 -19 -19 -19 -19 -19 -20 -20 -20 -20 -20 -20 -20 -20 -20
-18 -18 -18 -18 -19 -19 -19 -19 -18 -19 -19 -19 -19 -19 -19 -19 -19 -19 -19 -19 -19 -19 -19 -19 -18 -19 -19 -19 -19 -19 -19 -19 -19 -19 -19 -20 -20 -20 -20 -20 -20 -20 -20 -20
-18 -18 -18 -18 -19 -19 -19 -19 -19 -19 -19 -19 -19 -19 -19 -20 -19 -19 -19 -19 -19 -19 -19 -19 -19 -19 -19 -19 -19 -19 -19 -19 -19 -20 -19 -19 -19 -20 -20 -20 -20 -20 -20 -20
-18 -18 -18 -19 -19 -19 -19 -19 -19 -19 -19 -19 -19 -19 -20 -20 -20 -20 -20 -20 -20 -20 -20 -19 -19 -19 -19 -19 -19 -19 -19 -19 -19 -19 -20 -19 -19 -19 -20 -20 -20 -20 -20 -20
-17 -17 -18 -18 -18 -19 -19 -19 -19 -19 -20 -20 -20 -20 -20 -20 -20 -20 -20 -20 -20 -20 -20 -20 -20 -20 -19 -19 -19 -19 -19 -19 -19 -19 -19 -19 -19 -19 -19 -19 -20 -20 -20 -20
-18 -18 -18 -18 -18 -19 -19 -19 -19 -19 -20 -20 -20 -20 -20 -21 -21 -21 -21 -21 -21 -21 -21 -20 -20 -20 -20 -20 -19 -19 -20 -19 -19 -19 -19 -19 -19 -19 -19 -19 -19 -19 -20 -20
-18 -18 -19 -19 -19 -19 -19 -19 -19 -20 -20 -20 -20 -21 -21 -21 -21 -21 -21 -21 -21 -21 -21 -21 -21 -21 -20 -20 -20 -20 -20 -20 -20 -19 -19 -19 -19 -19 -19 -19 -19 -19 -19 -19
-19 -19 -19 -19 -19 -19 -20 -20 -20 -20 -21 -21 -21 -22 -22 -22 -22 -22 -22 -22 -22 -22 -22 -22 -21 -21 -21 -21 -20 -20 -20 -20 -20 -20 -20 -20 -19 -19 -19 -19 -19 -19 -19 -19
-19 -19 -19 -20 -20 -20 -20 -21 -21 -21 -22 -22 -23 -23 -23 -23 -23 -23 -23 -23 -23 -23 -23 -23 -22 -22 -21 -21 -21 -21 -20 -20 -20 -20 -20 -20 -20 -20 -19 -19 -19 -19 -19 -19
-19 -20 -20 -20 -21 -21 -21 -22 -22 -23 -24 -24 -24 -24 -24 -24 -24 -24 -24 -23 -23 -23 -23 -23 -23 -23 -22 -22 -22 -21 -21 -21 -20 -20 -20 -20 -20 -20 -20 -20 -19 -19 -19 -19
-19 -20 -21 -21 -22 -22 -23 -23 -24 -24 -24 -25 -25 -25 -25 -25 -25 -25 -25 -25 -25 -25 -24 -24 -23 -23 -23 -23 -23 -22 -22 -21 -21 -21 -20 -20 -20 -20 -20 -20 -20 -19 -19 -19
-20 -21 -22 -22 -23 -24 -24 -24 -24 -25 -25 -25 -25 -25 -25 -25 -25 -25 -25 -25 -25 -25 -25 -25 -25 -25 -24 -24 -23 -23 -23 -22 -22 -22 -21 -21 -20 -20 -20 -20 -19 -19 -20 -19
-21 -22 -23 -24 -24 -24 -25 -25 -25 -25 -25 -25 -25 -25 -25 -26 -26 -26 -26 -26 -26 -26 -26 -26 -26 -26 -26 -25 -25 -25 -24 -23 -23 -22 -22 -22 -21 -21 -20 -20 -20 -20 -19 -19
Height
5720 5723 5723 5724 5725 5726 5727 5728 5728 5726 5725 5724 5721 5718 5714 5711 5705 5700 5695 5688 5681 5672 5663 5654 5645 5636 5625 5612 5598 5582 5567 5549 5533 5518 5502 5485 5467 5450 5436 5423 5413 5403 5396 5390
5710 5713 5716 5718 5720 5723 5725 5725 5725 5725 5725 5723 5720 5717 5714 5710 5706 5701 5694 5688 5680 5672 5662 5653 5642 5633 5621 5609 5594 5578 5561 5543 5527 5510 5492 5472 5453 5436 5421 5409 5400 5391 5384 5379
5699 5704 5709 5714 5717 5720 5722 5723 5725 5726 5725 5723 5720 5716 5714 5711 5706 5700 5694 5688 5680 5671 5661 5650 5640 5630 5619 5606 5590 5573 5557 5540 5523 5504 5484 5462 5441 5423 5409 5398 5389 5382 5376 5370
5691 5696 5703 5710 5715 5718 5721 5723 5725 5726 5725 5723 5720 5718 5715 5711 5705 5700 5694 5687 5679 5671 5661 5650 5639 5629 5618 5604 5588 5572 5556 5538 5520 5501 5479 5456 5433 5415 5399 5388 5380 5375 5371 5366
5689 5695 5703 5708 5713 5718 5721 5725 5726 5726 5725 5723 5721 5719 5715 5709 5705 5701 5694 5687 5679 5671 5661 5650 5639 5629 5618 5604 5589 5572 5556 5538 5520 5499 5476 5452 5429 5410 5394 5382 5375 5372 5370 5366
5695 5699 5704 5711 5715 5719 5724 5727 5728 5727 5726 5724 5722 5718 5714 5711 5707 5701 5694 5688 5680 5672 5662 5652 5641 5630 5618 5605 5591 5574 5557 5539 5521 5500 5477 5453 5430 5410 5395 5384 5377 5374 5373 5371
5701 5705 5710 5714 5719 5723 5727 5731 5728 5728 5726 5725 5722 5720 5716 5711 5707 5701 5696 5689 5682 5673 5665 5655 5644 5631 5620 5607 5594 5577 5560 5542 5525 5505 5483 5459 5438 5420 5404 5392 5385 5382 5381 5380
5706 5710 5715 5719 5723 5727 5729 5729 5729 5728 5727 5725 5723 5719 5716 5712 5708 5702 5697 5691 5684 5676 5667 5657 5647 5636 5623 5610 5597 5581 5565 5549 5531 5513 5492 5470 5451 5434 5420 5408 5399 5394 5390 5389
5714 5717 5720 5723 5727 5729 5730 5731 5730 5729 5728 5726 5723 5720 5717 5713 5709 5704 5698 5693 5686 5678 5670 5660 5651 5640 5627 5615 5601 5587 5572 5557 5540 5524 5505 5484 5466 5450 5436 5424 5415 5408 5403 5400
5720 5722 5725 5728 5730 5731 5732 5732 5731 5730 5728 5726 5724 5721 5718 5714 5710 5705 5700 5694 5688 5681 5673 5664 5654 5644 5632 5620 5607 5594 5580 5567 5552 5537 5520 5501 5484 5468 5454 5442 5432 5425 5419 5414
5727 5729 5730 5732 5733 5733 5734 5733 5732 5730 5728 5726 5724 5721 5718 5714 5710 5706 5701 5695 5690 5683 5676 5668 5658 5648 5638 5627 5613 5602 5590 5578 5564 5550 5536 5520 5506 5492 5476 5462 5450 5443 5438 5434
5730 5732 5734 5735 5735 5735 5734 5733 5732 5730 5728 5726 5724 5721 5719 5715 5711 5707 5702 5697 5691 5685 5679 5671 5662 5653 5644 5634 5622 5611 5600 5588 5577 5565 5553 5540 5526 5514 5502 5489 5477 5467 5460 5457
5732 5733 5734 5735 5735 5734 5734 5733 5731 5730 5727 5725 5723 5721 5718 5715 5712 5708 5703 5698 5693 5688 5681 5674 5667 5658 5650 5641 5630 5619 5610 5600 5590 5580 5568 5558 5546 5535 5526 5517 5507 5499 5491 5484
5733 5734 5735 5734 5734 5733 5732 5731 5729 5728 5726 5724 5722 5719 5717 5715 5711 5708 5704 5700 5695 5689 5683 5677 5671 5663 5656 5648 5638 5629 5620 5611 5602 5593 5584 5574 5565 5556 5547 5540 5534 5527 5521 5516
5735 5735 5734 5734 5733 5732 5731 5729 5728 5726 5724 5722 5720 5718 5716 5713 5710 5707 5704 5700 5696 5691 5685 5680 5674 5668 5662 5654 5646 5637 5629 5621 5613 5605 5597 5590 5581 5573 5566 5560 5555 5550 5545 5541
5736 5735 5734 5733 5732 5731 5730 5728 5727 5725 5723 5721 5719 5716 5714 5711 5708 5705 5702 5698 5695 5691 5687 5682 5677 5671 5666 5660 5653 5646 5638 5630 5623 5615 5609 5602 5596 5589 5582 5576 5571 5567 5564 5561
5736 5735 5734 5733 5732 5730 5729 5727 5725 5723 5722 5719 5717 5715 5712 5710 5706 5703 5700 5697 5694 5691 5687 5683 5678 5674 5669 5664 5658 5652 5646 5639 5633 5626 5619 5613 5608 5603 5597 5591 5587 5582 5580 5577
5737 5735 5734 5732 5731 5729 5727 5726 5724 5722 5720 5717 5715 5712 5709 5706 5703 5700 5697 5694 5691 5689 5686 5683 5679 5675 5671 5667 5662 5657 5652 5646 5641 5635 5629 5623 5618 5613 5609 5605 5601 5597 5594 5591
5738 5737 5735 5733 5731 5729 5727 5725 5723 5720 5718 5715 5712 5709 5705 5702 5699 5696 5693 5690 5687 5685 5683 5680 5677 5674 5671 5668 5664 5661 5657 5652 5647 5643 5638 5632 5627 5622 5618 5615 5611 5608 5606 5603
5739 5738 5735 5733 5731 5728 5726 5723 5720 5717 5714 5711 5708 5705 5702 5699 5696 5692 5689 5686 5684 5681 5679 5677 5675 5673 5670 5667 5665 5662 5659 5656 5652 5648 5644 5640 5636 5632 5628 5624 5621 5618 5616 5614
5739 5737 5734 5732 5729 5727 5724 5721 5718 5715 5711 5707 5704 5701 5698 5694 5691 5688 5685 5683 5680 5678 5676 5673 5670 5669 5667 5665 5663 5661 5659 5657 5655 5651 5648 5645 5642 5639 5635 5633 5629 5627 5625 5624
5736 5734 5731 5729 5727 5723 5720 5717 5714 5710 5707 5704 5700 5697 5694 5692 5689 5686 5683 5680 5677 5674 5671 5669 5667 5665 5663 5662 5660 5658 5657 5656 5655 5653 5651 5648 5646 5644 5641 5638 5637 5634 5633 5632
5733 5730 5728 5725 5722 5719 5716 5713 5709 5706 5703 5700 5697 5695 5692 5689 5687 5684 5681 5679 5676 5673 5669 5666 5663 5661 5659 5658 5656 5655 5654 5653 5652 5652 5651 5649 5648 5646 5644 5643 5641 5639 5638 5637
5728 5725 5722 5719 5717 5714 5712 5709 5706 5703 5701 5700 5698 5696 5693 5690 5688 5685 5682 5678 5674 5670 5667 5663 5660 5657 5655 5653 5652 5651 5649 5648 5648 5648 5648 5648 5647 5646 5645 5644 5643 5642 5640 5639
5722 5720 5716 5714 5712 5709 5707 5706 5705 5703 5701 5700 5698 5696 5693 5691 5688 5684 5681 5676 5672 5668 5663 5659 5655 5653 5650 5648 5647 5645 5644 5643 5642 5642 5642 5642 5643 5644 5643 5643 5642 5642 5641 5641
5718 5715 5712 5710 5709 5708 5707 5706 5705 5704 5702 5701 5699 5697 5694 5691 5688 5684 5680 5676 5672 5668 5663 5658 5654 5650 5646 5643 5641 5639 5638 5637 5636 5636 5636 5636 5636 5637 5638 5639 5639 5639 5639 5639
5712 5709 5708 5708 5708 5708 5707 5706 5705 5704 5703 5702 5700 5697 5694 5691 5687 5683 5679 5676 5671 5666 5661 5657 5652 5648 5643 5639 5636 5633 5631 5629 5628 5628 5628 5628 5629 5630 5630 5632 5633 5634 5635 5635
Wind_Speed
34 28 27 29 24 17 12 11 8 6 6 2 6 11 13 16 21 24 27 30 34 37 33 31 33 38 41 49 55 58 58 54 49 50 53 53 55 54 49 43 38 36 33 29
34 29 27 26 22 14 9 7 4 7 4 3 9 12 15 19 20 23 27 30 35 40 38 33 35 40 45 52 57 59 59 55 52 55 57 60 56 50 43 41 36 33 28 25
31 26 24 22 16 8 8 5 11 7 4 7 11 16 15 17 19 24 27 28 34 38 45 39 37 38 47 51 59 58 58 55 55 60 63 61 58 49 42 36 31 28 24 22
21 22 19 15 13 12 10 15 12 7 6 10 12 12 15 17 23 24 26 29 33 37 42 46 37 41 48 50 60 57 57 55 59 64 65 64 58 49 41 33 26 20 16 17
17 17 18 18 18 17 20 17 9 7 10 11 11 12 16 21 22 23 27 31 34 37 40 47 46 39 45 52 58 57 58 56 62 67 68 64 59 51 39 29 20 11 9 13
18 19 21 22 20 24 21 14 10 10 10 8 11 15 17 18 20 24 29 32 35 37 40 44 50 43 46 52 56 56 59 58 63 68 70 65 58 49 42 29 22 12 15 17
20 21 20 20 24 24 18 11 10 10 9 12 13 13 15 18 21 25 28 32 36 39 41 41 48 49 44 48 57 57 61 62 61 68 70 67 60 50 47 38 30 21 19 20
18 21 20 21 24 20 13 11 8 9 11 13 15 15 17 19 21 24 27 31 34 37 40 43 45 52 53 52 53 56 60 63 59 66 71 69 60 52 48 41 35 27 20 19
25 23 25 25 20 14 11 8 8 9 12 13 16 16 17 18 20 23 26 29 33 36 39 43 44 47 49 52 53 54 57 63 59 64 71 72 62 55 50 46 39 34 29 25
23 25 22 17 14 10 8 8 8 9 11 12 15 16 17 18 20 23 25 27 31 35 38 41 44 46 47 54 49 50 53 60 60 61 67 71 68 60 53 45 45 43 36 32
18 17 16 13 9 6 4 4 6 9 11 11 11 15 17 17 19 21 23 27 30 33 37 40 42 45 47 51 46 50 53 56 60 56 61 66 66 67 65 57 49 42 40 42
12 10 8 6 4 2 4 5 8 11 13 11 9 12 15 18 18 19 21 25 28 30 34 38 40 43 46 46 49 47 47 49 55 57 55 58 60 64 65 65 67 61 53 47
11 10 10 8 8 9 9 10 12 12 12 12 10 10 13 16 18 19 20 22 24 27 31 34 37 40 42 45 47 43 45 48 49 52 54 52 54 55 58 61 62 64 64 63
7 6 8 10 11 12 13 13 12 10 10 11 10 11 13 15 17 19 20 21 23 25 29 31 33 36 38 41 43 43 43 42 43 45 49 50 47 50 50 52 54 55 57 58
3 3 6 7 9 10 11 10 10 10 11 11 12 13 14 16 17 19 20 20 21 23 26 28 30 32 34 36 39 41 39 41 42 41 42 44 47 42 43 44 42 44 47 49
7 7 7 5 4 6 7 9 10 11 12 13 14 15 17 19 20 20 21 21 20 21 23 24 25 28 29 31 34 36 37 39 39 39 38 37 38 41 43 37 37 37 36 36
4 5 6 6 6 6 7 9 11 12 13 14 16 18 19 20 21 23 23 23 23 21 20 21 22 23 25 27 29 30 32 33 37 38 36 34 33 32 33 37 39 34 30 32
7 7 7 8 8 9 9 10 11 12 13 15 16 18 20 21 22 23 23 23 23 22 21 20 20 20 21 22 24 25 26 28 29 29 34 31 30 29 28 28 29 31 34 36
6 8 10 12 12 13 12 12 13 14 15 16 17 18 19 20 20 22 23 23 24 23 22 21 19 19 19 19 19 20 22 22 23 25 25 29 27 28 26 25 25 25 27 28
3 7 10 12 13 14 15 16 17 17 17 17 18 19 20 21 22 23 23 24 24 25 25 23 22 19 18 18 17 16 16 17 18 18 20 20 24 21 23 23 23 24 24 24
6 7 9 11 13 15 17 19 21 22 23 24 23 22 22 21 22 23 23 24 24 24 24 24 23 21 19 17 16 15 14 12 12 14 14 15 16 18 17 16 19 24 23 23
10 12 13 15 17 19 21 22 24 25 26 26 24 20 17 18 19 21 23 22 22 23 24 23 24 24 21 18 17 16 14 12 10 8 9 10 10 11 12 13 11 14 19 23
14 16 18 19 20 20 22 23 24 24 21 15 12 12 14 16 18 21 22 22 24 24 24 23 22 21 21 21 20 18 16 15 12 10 7 5 6 5 5 6 8 7 7 13
18 21 22 23 22 21 21 20 15 5 5 8 10 11 13 16 18 18 20 23 25 25 24 22 21 22 21 20 21 21 19 18 16 14 12 10 8 6 3 0 3 4 4 7
24 24 26 25 22 20 13 4 5 5 9 12 13 16 19 21 21 21 20 20 22 23 24 25 25 23 20 21 22 21 21 22 20 19 18 16 14 13 11 8 6 6 7 8
26 27 25 19 10 3 5 4 5 9 11 11 14 15 17 18 18 22 27 29 28 27 27 27 27 28 30 28 24 23 24 22 22 21 21 22 21 19 18 17 15 13 11 11
26 22 12 3 2 5 6 7 9 10 12 14 16 18 20 20 20 21 24 28 30 32 31 29 28 28 27 25 26 26 24 25 25 23 24 22 24 25 25 23 22 22 21 19
Wind_Direction
267 261 254 256 265 277 266 285 312 314 108 59 26 33 28 17 9 3 1 358 355 354 359 360 358 355 354 353 353 351 347 346 343 340 339 331 327 320 323 316 318 314 307 299
265 259 251 252 259 266 257 269 263 149 130 45 43 36 30 13 6 6 5 3 10 11 8 357 350 351 354 354 353 351 351 350 349 347 342 338 333 326 322 321 321 318 312 308
257 248 242 241 247 227 217 191 146 150 88 52 45 39 14 10 8 13 7 4 5 10 9 5 1 356 357 356 357 355 353 355 355 352 348 344 339 334 332 329 326 320 315 320
230 227 216 215 195 182 164 154 154 131 80 57 39 27 22 17 18 13 9 7 6 6 10 10 0 0 359 357 1 358 358 359 359 357 355 352 348 345 341 338 331 328 324 340
168 165 170 165 162 149 145 152 131 98 71 49 30 24 23 22 14 14 13 11 11 9 10 9 7 1 3 2 1 2 2 4 4 2 1 1 356 358 358 355 349 353 7 17
145 149 144 147 143 145 147 132 115 86 61 37 22 21 24 20 17 17 17 14 14 11 12 11 13 4 5 8 4 6 6 6 8 8 7 10 9 12 13 17 22 51 64 64
150 133 137 139 145 146 139 118 90 67 42 31 24 27 26 22 19 19 18 15 13 12 12 9 7 9 11 8 7 10 10 11 13 14 14 17 22 26 31 37 48 58 84 75
142 137 136 144 147 139 130 103 83 54 40 32 26 26 25 19 16 16 15 14 13 13 11 11 14 19 15 12 11 13 14 14 18 20 21 21 28 33 37 43 51 59 77 83
130 131 139 140 145 138 115 94 65 41 32 27 26 22 21 16 13 12 12 12 11 12 13 12 12 11 10 12 18 17 17 17 21 25 27 26 28 36 42 48 53 58 71 78
132 144 147 146 143 128 101 69 41 22 17 21 22 20 18 13 11 10 8 9 9 11 13 13 13 14 12 16 19 20 21 20 24 28 31 32 35 36 43 48 54 61 66 74
136 143 148 149 141 114 74 21 356 348 359 3 10 14 16 12 10 8 7 9 8 8 10 13 14 15 15 17 21 23 25 24 26 31 34 37 41 43 46 49 57 63 65 72
155 162 162 177 196 259 279 302 324 331 340 345 352 1 5 8 10 6 6 7 6 6 9 11 13 15 15 16 23 24 27 27 28 31 37 40 44 46 49 54 58 63 71 81
190 197 210 226 241 262 284 300 310 319 330 330 333 338 347 351 358 2 4 5 3 3 5 11 13 15 15 18 25 27 30 33 31 34 37 41 46 51 52 54 60 64 70 77
180 203 229 248 259 271 283 295 299 304 310 319 321 321 325 333 340 347 357 357 358 1 3 6 12 16 15 18 23 29 30 35 35 33 38 42 46 51 54 58 61 65 70 74
140 228 268 281 282 286 293 298 311 306 301 309 316 320 322 323 326 334 339 345 351 357 1 2 7 15 16 17 22 28 33 35 38 38 37 41 47 51 55 61 63 65 69 73
73 65 57 41 13 355 339 326 317 314 313 311 313 317 320 320 322 324 329 333 344 350 351 355 1 9 12 17 20 23 29 37 35 40 41 40 44 50 56 60 65 65 67 71
53 36 30 29 28 9 347 335 336 337 325 316 314 315 317 318 319 322 325 328 334 338 341 344 352 1 5 10 19 20 23 30 34 38 38 44 45 48 54 61 64 70 75 75
33 14 356 345 337 333 333 333 333 332 331 330 325 320 317 317 316 316 318 319 322 326 332 335 340 350 354 0 10 17 18 24 30 34 40 38 46 48 52 57 66 71 76 80
13 357 357 356 360 0 356 345 335 328 322 317 314 313 313 315 317 318 318 316 315 316 320 327 333 335 339 346 356 7 16 18 26 35 37 42 42 48 54 60 63 71 79 83
332 330 334 339 343 341 340 339 338 337 334 329 324 319 314 309 308 307 309 313 317 317 314 315 316 318 323 330 337 347 2 14 16 25 36 37 43 51 57 64 70 72 76 85
314 322 320 318 318 317 316 318 319 322 323 323 327 327 327 321 319 317 311 306 306 307 309 318 322 309 309 312 318 327 334 350 8 14 21 36 41 44 64 64 80 81 83 83
304 301 301 301 300 301 305 311 313 315 319 320 323 326 328 329 331 332 333 332 325 317 312 310 314 312 319 305 302 304 312 319 329 349 9 17 33 45 49 78 76 85 93 93
301 298 297 298 298 298 302 307 311 316 321 326 335 348 350 345 339 339 339 337 337 336 337 334 329 314 312 310 307 296 295 297 298 301 306 329 3 22 54 69 88 122 117 98
301 298 298 299 305 310 310 311 320 349 20 24 11 5 5 2 359 350 338 333 331 331 332 331 325 323 326 316 306 301 300 285 283 281 278 275 273 284 311 234 143 155 96 110
301 302 301 309 316 318 328 25 86 70 44 42 34 26 20 10 4 1 4 359 355 350 345 336 329 324 315 308 309 310 301 293 284 271 268 264 261 260 259 250 242 217 196 194
304 308 309 314 327 31 121 105 88 41 29 30 18 9 1 358 356 356 356 359 358 357 354 349 344 342 335 326 314 296 292 297 291 285 270 261 258 254 251 253 248 239 233 223
307 306 319 3 113 131 93 65 38 21 12 0 350 350 349 355 357 354 353 354 354 351 348 345 341 338 336 331 330 323 310 288 282 286 281 272 260 256 253 248 244 247 246 239